Regional Weather Roundup
Issued by NWS State College, PA

Home | Current Version | Previous Version | Graphics & Text | Print | Product List | Glossary On
Versions: 1 2 3 4 5 6 7 8 9 10 11 12 13 14 15 16 17 18 19 20 21 22 23 24 25 26 27 28 29 30 31 32 33 34 35 36 37 38 39 40 41 42 43 44 45 46 47 48 49 50
000
ASUS41 KCTP 020410
RWRCTP

REGIONAL WEATHER ROUNDUP
NATIONAL WEATHER SERVICE STATE COLLEGE PA
1200 AM EDT THU JUL 02 2015

Note: "fair" indicates few or no clouds below 12,000 feet with no
significant weather and/or obstructions to visibility.

* = STATION THAT DOES NOT REPORT PRECIPITATION /E.G. RAIN...SNOW...ETC/
    THUNDER OR FOG.

PAZ002>004-007>009-013>016-020>023-029>032-020500-
WESTERN PENNSYLVANIA

CITY           SKY/WX    TMP DP  RH WIND       PRES   REMARKS
ERIE           CLOUDY    63  58  83 S3        29.95R
MEADVILLE      MOCLDY    59  56  89 CALM      29.97R
FRANKLIN*      MOCLDY    55  54  94 CALM      29.98S
NEW CASTLE     MOCLDY    64  64 100 CALM      29.96S
BEAVER COUNTY  NOT AVBL
BUTLER*        CLEAR     61  57  88 CALM      29.97R
PITTSBURGH INT MOCLDY    64  59  83 CALM      29.94F
PITTSBURGH     PTCLDY    67  55  65 W5        29.94S
INDIANA*       CLOUDY    61  61 100 CALM      29.99S
LATROBE        NOT AVBL
WASHINGTON CO* NOT AVBL
$$

PAZ004>006-010>012-017>019-024>028-033>037-041-042-045-046-049>053-020500-
CENTRAL PENNSYLVANIA

CITY           SKY/WX    TMP DP  RH WIND       PRES   REMARKS
BRADFORD       MOCLDY    56  54  93 CALM      29.97S
DUBOIS         PTCLDY    61  56  83 CALM      29.96S
CLEARFIELD     PTCLDY    60  57  89 CALM      29.96S
JOHNSTOWN      CLEAR     62  54  74 W5        29.98F
ALTOONA        CLEAR     59  56  89 S3        29.96F
STATE COLLEGE  MOCLDY    67  58  73 W3        29.95S
WILLIAMSPORT   CLEAR     61  59  93 SE3       29.90S
SELINSGROVE    CLEAR     64  62  93 CALM      29.92S
FT INDIANTOWN  MOCLDY    71  59  65 W6        29.91S
CAPITAL CITY   CLEAR     68  59  73 CALM      29.91S
HARRISBURG     PTCLDY    69  61  75 CALM      29.90S
YORK           CLEAR     62  60  93 W5        29.91S
$$

PAZ038>040-043-044-047-048-054-055-060>062-067>071-020500-
EASTERN PENNSYLVANIA

CITY           SKY/WX    TMP DP  RH WIND       PRES   REMARKS
SCRANTON       PTCLDY    64  59  83 SE3       29.92R
MOUNT POCONO   CLEAR     61  57  87 NW7       29.94F
ALLENTOWN      PTCLDY    69  60  73 NW3       29.90S
QUAKERTOWN*    PTCLDY    64  61  88 CALM      29.91S
READING        CLEAR     69  59  70 W5        29.90R
LANCASTER      CLEAR     67  59  75 SW3       29.90S
COATESVILLE    PTCLDY    66  61  82 W5        29.92F
POTTSTOWN      PTCLDY    65  60  84 CALM      29.92R
BLUE BELL      MOCLDY    68  63  83 CALM      29.90R
DOYLESTOWN     MOCLDY    66  59  78 CALM      29.89S
WILLOW GROVE   NOT AVBL
NORTH PHILA    NOT AVBL
PHILADELPHIA   MOCLDY    78  58  49 W7        29.90R
$$


USA.gov is the U.S. government's official web portal to all federal, state and local government web resources and services.